Regional Weather Roundup
Issued by NWS Upton, NY

Current Version | Previous Version | Text Only | Print | Product List | Glossary On
Versions: 1 2 3 4 5 6 7 8 9 10 11 12 13 14 15 16 17 18 19 20 21 22 23 24 25 26 27 28 29 30 31 32 33 34 35 36 37 38 39 40 41 42 43 44 45 46 47 48 49 50
000
ASUS41 KOKX 121205
RWROKX

REGIONAL WEATHER ROUNDUP
NATIONAL WEATHER SERVICE NEW YORK NY
800 AM EDT SAT JUL 12 2014

NOTE: "FAIR" INDICATES FEW OR NO CLOUDS BELOW 12,000 FEET WITH NO
SIGNIFICANT WEATHER AND/OR OBSTRUCTIONS TO VISIBILITY.

NYZ071-072-176-178-NJZ106-104-121300-
NEW YORK CITY METRO AREA


CITY           SKY/WX    TMP DP  RH WIND       PRES   REMARKS
CENTRAL PARK   SUNNY     74  61  63 W5        30.26S
LAGUARDIA APRT MOSUNNY   74  64  71 SW6       30.22S
KENNEDY INTL   MOSUNNY   72  68  87 S3        30.24S
NEWARK/LIBERTY MOSUNNY   75  66  73 CALM      30.23S
BRNX BOT. GARD   N/A     77  66  69 NE2       30.25S
TETERBORO      SUNNY     75  66  73 CALM      30.22S
$$

NYZ177-179-078>081-121300-
LONG ISLAND NEW YORK

CITY           SKY/WX    TMP DP  RH WIND       PRES   REMARKS
FARMINGDALE    SUNNY     71  65  81 S5        30.24R
ISLIP          MOSUNNY   73  66  78 S5        30.23R
SHIRLEY        SUNNY     72  65  78 SW3       30.24S
WESTHAMPTON    SUNNY     70  64  81 S3        30.26R
MONTAUK POINT    N/A     72  65  78 CALM      30.25S
$$

NYZ052-065-067-121300-
HUDSON VALLEY

CITY           SKY/WX    TMP DP  RH WIND       PRES   REMARKS
WHITE PLAINS   SUNNY     72  65  78 CALM      30.24R HAZE
NEWBURGH       MOSUNNY   68  64  88 CALM      30.25S
MONTGOMERY     SUNNY     67  63  87 CALM      30.23F
POUGHKEEPSIE   SUNNY     68  63  84 CALM      30.22S
ALBANY         MOSUNNY   65  58  78 S6        30.22S
$$

NJZ001-105-106-008-010-013-015-019>022-104-121300-
NEW JERSEY

CITY           SKY/WX    TMP DP  RH WIND       PRES   REMARKS
NEWARK/LIBERTY MOSUNNY   75  66  73 CALM      30.23S
TETERBORO      SUNNY     75  66  73 CALM      30.22S
CALDWELL       SUNNY     70  65  84 CALM      30.24S
MORRISTOWN     SUNNY     72  68  88 CALM      30.24S
SOMERVILLE     SUNNY     69  63  81 CALM      30.22S
LINDEN         FAIR      75  65  70 CALM      30.25S
SUSSEX         SUNNY     68  63  84 CALM      30.24S
ANDOVER          N/A     67  64  90 CALM      30.25S
TRENTON        SUNNY     71  63  75 MISG      30.23S
MILLVILLE      FOG       68  68 100 SE3       30.24S VSB 1/4
ATLANTIC CITY  SUNNY     71  68  90 CALM      30.24S
WRIGHTSTOWN    MOSUNNY   69  67  93 S5        30.22S
TOMS RIVER     PTSUNNY   68  66  94 CALM      30.24F
BELMAR         SUNNY     70  66  88 CALM      30.24S
$$

PAZ047>061-062-071-121300-
EASTERN PENNSYLVANIA

CITY           SKY/WX    TMP DP  RH WIND       PRES   REMARKS
PHILADELPHIA   MOSUNNY   73  65  75 S5        30.23S
ALLENTOWN      MOSUNNY   70  65  84 CALM      30.24S
SCRANTON       PTSUNNY   68  62  81 CALM      30.24R
$$

CTZ002-004>006-009-010-012-RIZ004-006-007-MAZ004-011-015-121300-
SOUTHERN NEW ENGLAND
 IN CT

CITY           SKY/WX    TMP DP  RH WIND       PRES   REMARKS
BRADLEY INTL   MOSUNNY   68  57  68 N3        30.23S
HARTFORD       MOSUNNY   70  63  78 CALM      30.23S
DANBURY        SUNNY     68  61  78 CALM      30.26S
WTRBRY/OXFORD  SUNNY     68  61  77 CALM      30.27R
BRIDGEPORT     SUNNY     72  67  84 CALM      30.23S
MERIDEN        SUNNY     69  64  84 CALM      30.24S
NEW HAVEN      SUNNY     73  66  78 S3        30.24R
CHESTER        FAIR      72  63  73 SW3       30.25S
GROTON         SUNNY     68  64  87 CALM      30.23S
WILLIMANTIC    SUNNY     65  60  84 CALM      30.25R

 IN RI

CITY           SKY/WX    TMP DP  RH WIND       PRES   REMARKS
PROVIDENCE     MOSUNNY   71  58  63 W7        30.24R
BLOCK ISLAND   SUNNY     70  63  78 W5        30.25R
WESTERLY       MOSUNNY   70  63  78 CALM      30.24S

 IN MA

CITY           SKY/WX    TMP DP  RH WIND       PRES   REMARKS
BOSTON         MOSUNNY   71  59  65 NW3       30.22R
WORCESTER      SUNNY     70  56  61 W6        30.25R
WESTFIELD      NOT AVBL
PROVINCETOWN   SUNNY     70  63  78 S8        30.24R
NANTUCKET      SUNNY     68  62  81 SW5       30.25R
$$

ANZ330-335-338-340-345-350-353-355-121300-
COASTAL MARINE OBSERVATIONS


STATION/POSITION TIME  SKY/WX   TEMP    WIND        PRES    VSBY  WAVE
                                AIR SEA DIR/SP/G                  HT/PER
                 (UTC)          (F)     (DEG/KT/KT) (MB)    (MI)  (FT/S)
NY HARB ENTRANCE NOT AVBL
4S FIRE IS       1100               70                N/A           2/ 7
23SW MTP         1200            70 66              1023.8          2/ 6
HUDSON CANYON    1200            69 70   10/  6/  6 1023.7          2/ 6
EXECUTION ROCKS  1200            69 67  340/  2/  4   N/A
WESTERN LI SOUND 1200            70      CALM  /  2   N/A           0
CENTRAL LI SOUND 1200            71 71  200/  4/  6   N/A           0
EASTERN LI SOUND 1100            66 65   CALM  /  2   N/A
ROBBINS REEF     1200            67     160/  7/  8   N/A
$$


>>>>>>>>>>>>>>>>>>>>>>>>>>>> KEY <<<<<<<<<<<<<<<<<<<<<<<<<<<
>                                                          <
>     SKY/WX - SKY CONDITION/PRESENT WEATHER               <
>     TMP    - TEMPERATURE IN FAHRENHEIT                   <
>     DP     - DEWPOINT IN FAHRENHEIT                      <
>     RH     - RELATIVE HUMIDITY IN PERCENT                <
>     WIND   - DIRECTION AND SPEED IN MPH                  <
>     PRES   - MEAN SEA LEVEL PRESSURE IN INCHES OF HG     <
>     WCI    - WIND CHILL INDEX                            <
>     VSB    - VISIBILITY IN MILES                         <
>     HX     - HEAT INDEX                                  <
>     TC     - TEMPERATURE IN CELSIUS                      <
>     VRB    - VARIABLE WIND DIRECTION                     <
>                                                          <
>>>>>>>>>>>>>>>>>>>>>>>>>>>> KEY <<<<<<<<<<<<<<<<<<<<<<<<<<<




USA.gov is the U.S. government's official web portal to all federal, state and local government web resources and services.